Date String (YYYY-MM-DD hh:mm:ss) UTC,Instrument flags,Ambient pressure (hPa),Sample flow (lpm),Bypass flow (lpm),Sample temperature (°C),Ambient temperature (°C),ASC tube jacket temperature (°C),LED temperature (°C),Box temperature (°C),Sample RH (%),Span deviation,Mass concentration (μg/m³),Mass concentration (μg/m³),Mass concentration (μg/m³)
DateTimeUTC,F1_M11,P_M11,Q1_M11,Q2_M11,T1_M11,T2_M11,T3_M11,T4_M11,T5_M11,U1_M11,ZSPAN_M11,X2_M11,X0_M11,X1_M11
2023-02-03 11:00:00,,0831.3,4.99,0.00,22.5,21.9,00.0,31.2,24.4,05.2,0000.0,0000.95,0004.63,0000.51
2023-02-03 11:01:00,,0831.3,5.00,0.00,22.6,22.8,00.0,31.2,24.6,05.2,0000.0,0000.93,0003.77,0000.52
2023-02-03 11:02:00,,0831.3,4.99,0.00,22.7,22.8,00.0,31.3,24.7,05.2,0000.0,0000.91,0004.03,0000.51
2023-02-03 11:03:00,,0831.3,4.99,0.00,22.7,22.5,00.0,31.3,24.7,05.2,0000.0,0000.88,0002.55,0000.51
2023-02-03 11:04:00,,0831.3,5.00,0.00,22.7,22.2,00.0,31.4,24.6,05.1,0000.0,0000.85,0002.44,0000.50
2023-02-03 11:05:00,,0831.3,5.02,0.00,22.7,22.0,00.0,31.4,24.6,05.3,0000.0,0000.80,0002.31,0000.50
2023-02-03 11:06:00,,0831.3,4.97,0.00,22.7,21.8,00.0,31.4,24.6,05.2,0000.0,0000.82,0002.43,0000.49
2023-02-03 11:07:00,,0831.3,5.03,0.00,22.7,21.7,00.0,31.4,24.5,05.1,0000.0,0000.84,0002.51,0000.48
2023-02-03 11:08:00,,0831.4,4.99,0.00,22.7,21.6,00.0,31.4,24.5,05.1,0000.0,0000.85,0002.54,0000.48
2023-02-03 11:09:00,,0831.4,5.00,0.00,22.7,21.5,00.0,31.5,24.5,05.2,0000.0,0000.86,0002.54,0000.48
2023-02-03 11:10:00,,0831.3,5.03,0.00,22.7,21.4,00.0,31.5,24.5,05.1,0000.0,0000.82,0002.51,0000.48
2023-02-03 11:11:00,,0831.3,4.99,0.00,22.7,21.3,00.0,31.5,24.5,05.1,0000.0,0000.86,0002.67,0000.48
2023-02-03 11:12:00,,0831.3,5.01,0.00,22.7,21.3,00.0,31.5,24.5,05.0,0000.0,0000.88,0002.64,0000.48
2023-02-03 11:13:00,,0831.3,5.00,0.00,22.7,21.3,00.0,31.5,24.5,05.0,0000.0,0000.89,0002.35,0000.47
2023-02-03 11:14:00,,0831.3,5.00,0.00,22.6,21.2,00.0,31.5,24.4,05.0,0000.0,0000.89,0002.39,0000.46
2023-02-03 11:15:00,,0831.3,5.00,0.00,22.6,21.2,00.0,31.5,24.4,05.0,0000.0,0000.89,0002.41,0000.45
2023-02-03 11:16:00,,0831.2,5.00,0.00,22.6,21.1,00.0,31.5,24.4,05.0,0000.0,0000.88,0002.37,0000.44
2023-02-03 11:17:00,,0831.2,5.00,0.00,22.6,21.1,00.0,31.5,24.4,05.0,0000.0,0000.86,0002.22,0000.45
2023-02-03 11:18:00,,0831.2,5.01,0.00,22.6,21.0,00.0,31.4,24.4,05.0,0000.0,0000.85,0002.16,0000.44
2023-02-03 11:19:00,,0831.2,4.97,0.00,22.6,21.0,00.0,31.4,24.3,05.0,0000.0,0000.85,0003.02,0000.44
2023-02-03 11:20:00,,0831.2,4.95,0.00,22.5,20.9,00.0,31.4,24.3,05.1,0000.0,0000.81,0003.11,0000.44
2023-02-03 11:21:00,,0831.2,4.99,0.00,22.5,20.9,00.0,31.4,24.3,05.1,0000.0,0000.83,0003.06,0000.44
2023-02-03 11:22:00,,0831.2,5.00,0.00,22.5,20.9,00.0,31.4,24.3,05.1,0000.0,0000.82,0002.98,0000.44
2023-02-03 11:23:00,,0831.2,4.99,0.00,22.5,20.9,00.0,31.4,24.3,05.1,0000.0,0000.80,0004.10,0000.44
2023-02-03 11:24:00,,0831.2,5.00,0.00,22.5,21.0,00.0,31.4,24.3,05.2,0000.0,0000.81,0003.82,0000.44
2023-02-03 11:25:00,,0831.2,5.01,0.00,22.5,21.0,00.0,31.4,24.2,05.1,0000.0,0000.82,0003.92,0000.44
2023-02-03 11:26:00,,0831.2,4.99,0.00,22.5,21.0,00.0,31.4,24.2,05.1,0000.0,0000.83,0003.97,0000.45
2023-02-03 11:27:00,,0831.2,4.99,0.00,22.5,21.0,00.0,31.4,24.2,05.0,0000.0,0000.85,0003.98,0000.45
2023-02-03 11:28:00,,0831.2,5.02,0.00,22.5,21.0,00.0,31.4,24.2,05.0,0000.0,0000.87,0004.02,0000.44
2023-02-03 11:29:00,,0831.2,4.99,0.00,22.4,21.0,00.0,31.3,24.2,05.0,0000.0,0000.88,0004.06,0000.44
2023-02-03 11:30:00,,0831.2,5.00,0.00,22.4,21.0,00.0,31.3,24.2,05.0,0000.0,0000.89,0003.20,0000.44
2023-02-03 11:31:00,,0831.2,5.00,0.00,22.4,21.0,00.0,31.3,24.1,05.1,0000.0,0000.90,0003.13,0000.43
2023-02-03 11:32:00,,0831.2,4.99,0.00,22.4,21.0,00.0,31.3,24.1,05.1,0000.0,0000.89,0003.07,0000.42
2023-02-03 11:33:00,,0831.2,4.99,0.00,22.4,20.9,00.0,31.3,24.1,05.1,0000.0,0000.93,0003.09,0000.41
2023-02-03 11:34:00,,0831.2,5.00,0.00,22.4,20.9,00.0,31.3,24.1,05.1,0000.0,0000.93,0001.99,0000.41
2023-02-03 11:35:00,,0831.2,5.01,0.00,22.4,20.9,00.0,31.3,24.0,05.2,0000.0,0000.92,0002.02,0000.41
2023-02-03 11:36:00,,0831.3,5.00,0.00,22.3,20.9,00.0,31.3,24.0,05.2,0000.0,0000.91,0001.84,0000.41
2023-02-03 11:37:00,,0831.3,4.98,0.00,22.3,20.9,00.0,31.3,24.1,05.2,0000.0,0000.91,0001.81,0000.42
2023-02-03 11:38:00,,0831.3,5.01,0.00,22.3,20.9,00.0,31.3,24.0,05.2,0000.0,0000.91,0001.82,0000.42
2023-02-03 11:39:00,,0831.3,4.99,0.00,22.3,20.9,00.0,31.2,24.0,05.2,0000.0,0000.91,0001.82,0000.43
2023-02-03 11:40:00,,0831.4,5.00,0.00,22.3,20.9,00.0,31.2,24.0,05.2,0000.0,0000.92,0001.87,0000.44
2023-02-03 11:41:00,,0831.3,5.00,0.00,22.3,20.9,00.0,31.2,24.0,05.2,0000.0,0000.95,0002.00,0000.45
2023-02-03 11:42:00,,0831.4,5.00,0.00,22.3,20.9,00.0,31.2,24.0,05.2,0000.0,0000.95,0002.02,0000.46
2023-02-03 11:43:00,,0831.3,5.00,0.00,22.3,20.9,00.0,31.2,24.0,05.2,0000.0,0000.92,0001.95,0000.46
2023-02-03 11:44:00,,0831.4,4.99,0.00,22.3,20.8,00.0,31.2,23.9,05.2,0000.0,0000.87,0001.84,0000.47
2023-02-03 11:45:00,,0831.3,5.01,0.00,22.2,20.7,00.0,31.2,24.0,05.2,0000.0,0000.86,0001.78,0000.47
2023-02-03 11:46:00,,0831.3,5.00,0.00,22.2,20.7,00.0,31.2,24.0,05.2,0000.0,0000.83,0001.70,0000.47
2023-02-03 11:47:00,,0831.3,5.00,0.00,22.3,20.9,00.0,31.1,24.0,05.2,0000.0,0000.84,0001.74,0000.48
2023-02-03 11:48:00,,0831.3,5.02,0.00,22.3,21.7,00.0,31.1,24.3,05.2,0000.0,0000.82,0001.70,0000.48
2023-02-03 11:49:00,,0831.3,5.00,0.00,22.4,22.6,00.0,31.1,24.5,05.2,0000.0,0000.81,0001.65,0000.49
2023-02-03 11:50:00,,0831.4,5.00,0.00,22.5,22.6,00.0,31.2,24.5,05.1,0000.0,0000.78,0002.13,0000.48
2023-02-03 11:51:00,,0831.4,5.00,0.00,22.5,22.2,00.0,31.2,24.5,05.1,0000.0,0000.78,0002.13,0000.48
2023-02-03 11:52:00,,0831.5,5.01,0.00,22.6,22.0,00.0,31.3,24.4,05.2,0000.0,0000.76,0002.04,0000.48
2023-02-03 11:53:00,,0831.4,5.00,0.00,22.6,21.8,00.0,31.3,24.4,05.1,0000.0,0000.79,0002.06,0000.47
2023-02-03 11:54:00,,0831.4,5.01,0.00,22.6,21.6,00.0,31.3,24.4,05.1,0000.0,0000.81,0002.20,0000.47
2023-02-03 11:55:00,,0831.4,4.99,0.00,22.6,21.5,00.0,31.3,24.4,05.1,0000.0,0000.80,0002.19,0000.46
2023-02-03 11:56:00,,0831.4,4.99,0.00,22.6,21.4,00.0,31.3,24.4,05.1,0000.0,0000.82,0002.20,0000.46
2023-02-03 11:57:00,,0831.4,4.98,0.00,22.6,21.3,00.0,31.3,24.4,05.1,0000.0,0000.82,0002.20,0000.45
2023-02-03 11:58:00,,0831.4,5.00,0.00,22.6,21.3,00.0,31.3,24.4,05.1,0000.0,0000.85,0002.37,0000.44
2023-02-03 11:59:00,,0831.4,5.01,0.00,22.6,21.2,00.0,31.4,24.4,05.0,0000.0,0000.85,0002.84,0000.42
